This is the latest recevied weather packets stored in our database for station/object W8AN. If no packets are shown the sender has not sent any weather packets the latest 10 day(s).
| Time | Temp. | Humidity | Pressure | Rain* | Wind** | Luminosity | Snow |
|---|---|---|---|---|---|---|---|
| 1778173151 | 12.78° C | 43% | 4268.3 hPa | 0 mm | - | 744 W/m² | - |
| 1778172847 | 12.22° C | 44% | 4268.4 hPa | 0 mm | - | 748 W/m² | - |
| 1778172543 | 12.22° C | 43% | 4268.6 hPa | 0 mm | - | 783 W/m² | - |
| 1778172240 | 12.22° C | 48% | 4268.6 hPa | 0 mm | - | 835 W/m² | - |
| 1778171937 | 12.22° C | 47% | 4268.6 hPa | 0 mm | - | 772 W/m² | - |
| 1778171635 | 12.22° C | 47% | 4268.5 hPa | 0 mm | - | 795 W/m² | - |
| 1778171331 | 12.22° C | 49% | 4268.6 hPa | 0 mm | - | 218 W/m² | - |
| 1778171026 | 12.22° C | 48% | 4268.6 hPa | 0 mm | - | 792 W/m² | - |
| 1778170724 | 11.67° C | 50% | 4268.5 hPa | 0 mm | - | 788 W/m² | - |
| 1778170420 | 11.67° C | 47% | 4268.4 hPa | 0 mm | - | 806 W/m² | - |
| 1778170117 | 11.67° C | 48% | 4268.5 hPa | 0 mm | - | 798 W/m² | - |
| 1778169813 | 11.67° C | 53% | 4268.3 hPa | 0 mm | - | 873 W/m² | - |
| 1778169509 | 11.67° C | 50% | 4268.3 hPa | 0 mm | - | 253 W/m² | - |
| 1778169205 | 12.22° C | 51% | 4268.3 hPa | 0 mm | - | 864 W/m² | - |
| 1778168902 | 11.11° C | 53% | 4268.1 hPa | 0 mm | - | 842 W/m² | - |
| 1778168599 | 11.67° C | 53% | 4268.4 hPa | 0 mm | - | 830 W/m² | - |
| 1778168296 | 11.67° C | 58% | 4268.4 hPa | 0 mm | - | 834 W/m² | - |
| 1778167993 | 11.11° C | 56% | 4268.5 hPa | 0 mm | - | 831 W/m² | - |
| 1778167689 | 11.11° C | 54% | 4268.3 hPa | 0 mm | - | 835 W/m² | - |
| 1778167385 | 11.11° C | 56% | 4268.4 hPa | 0 mm | - | 822 W/m² | - |
| 1778167081 | 11.11° C | 58% | 4268.4 hPa | 0 mm | - | 837 W/m² | - |
| 1778166778 | 11.11° C | 61% | 4268.4 hPa | 0 mm | - | 835 W/m² | - |
| 1778166475 | 10.56° C | 64% | 4268.3 hPa | 0 mm | - | 823 W/m² | - |
| 1778166171 | 11.11° C | 62% | 4268.3 hPa | 0 mm | - | 826 W/m² | - |
| 1778165868 | 10.56° C | 61% | 4268.3 hPa | 0 mm | - | 790 W/m² | - |
* Rain latest hour (hover to see other rain measurements)
** Current wind speed in m/s (hover to see current wind gust speed)